Wind_Speed
32 29 26 25 25 23 24 25 26 26 26 24 23 23 23 23 21 21 22 25 26 28 12 9 9 10 13 15 17 18 18 18 17 14 13 12 12 14 14 13 11 11 12
29 26 26 25 24 23 23 23 24 26 27 26 26 25 24 22 21 20 19 18 20 27 30 25 7 8 11 16 17 18 18 17 14 13 10 8 9 9 9 10 9 8 8
30 29 27 26 26 23 24 25 26 27 28 28 28 26 24 22 21 19 17 18 21 25 28 29 36 16 15 18 18 15 14 12 10 7 5 4 5 6 7 7 6 7 8
30 31 30 30 29 27 27 28 28 28 28 27 26 25 24 21 21 20 20 20 25 26 30 32 33 31 29 23 21 24 26 24 22 17 14 15 17 12 12 13 14 13 13
30 30 31 33 32 30 28 29 30 29 29 27 25 22 20 19 19 18 18 18 19 20 22 21 23 28 30 21 23 23 23 22 21 19 18 21 21 22 20 20 18 16 15
30 30 31 33 33 33 32 31 30 30 29 29 27 23 19 17 16 16 15 14 15 15 16 17 18 18 18 28 24 23 24 24 24 22 19 19 20 20 20 20 20 18 15
32 30 30 31 32 32 33 32 32 31 29 29 25 23 19 16 15 14 12 11 10 10 10 13 16 18 21 23 24 19 19 18 16 18 18 20 19 18 18 17 17 15 15
30 30 30 30 31 33 32 33 35 34 30 19 11 10 3 5 13 14 11 11 10 8 8 9 9 12 14 16 22 21 18 18 18 19 18 12 14 14 13 14 15 15 15
33 31 30 29 29 31 32 32 32 32 28 16 22 6 3 3 4 8 12 11 10 9 10 8 7 7 9 12 16 19 20 17 15 14 12 13 12 11 12 12 13 14 14
33 31 28 27 26 27 29 30 28 25 25 22 18 6 6 12 3 2 6 10 9 9 10 10 9 9 8 9 11 15 14 14 14 14 14 10 9 9 8 9 10 11 12
29 30 30 28 27 26 27 26 23 19 20 21 16 14 13 8 9 5 3 4 7 8 7 7 8 8 8 9 10 11 13 14 12 12 10 10 10 9 8 8 9 10 11
30 29 29 28 27 27 26 22 19 17 18 17 13 13 13 5 7 5 5 4 6 5 5 5 6 6 6 6 5 4 3 9 11 10 9 9 9 9 8 8 8 9 9
33 30 30 30 28 27 25 22 19 18 18 16 14 12 11 6 12 9 11 7 5 4 2 3 5 5 4 5 5 4 4 2 7 9 8 8 8 9 8 8 8 8 8
35 34 31 30 29 26 23 21 19 17 16 14 13 11 10 8 9 10 11 17 4 3 4 4 4 2 3 4 5 4 4 4 3 7 8 8 8 8 8 8 7 7 7
37 34 33 34 29 25 23 22 20 19 16 14 13 11 9 7 6 8 9 14 11 3 2 7 5 5 3 3 3 2 3 3 4 6 6 7 7 8 8 7 7 6 6
33 34 33 30 29 27 25 23 21 19 17 15 12 11 10 8 7 7 9 8 5 6 3 4 5 8 5 3 3 2 3 2 3 5 5 5 6 7 7 6 6 6 6
31 32 31 29 28 25 24 22 21 19 17 16 13 11 11 9 8 7 7 6 6 6 11 6 8 9 6 3 2 2 2 3 3 3 7 7 7 7 7 6 6 6 6
30 28 30 29 27 25 23 22 21 19 18 17 16 14 13 11 11 9 8 7 6 5 8 15 13 8 6 3 1 2 2 3 3 4 6 6 7 7 6 7 7 7 7
31 28 28 27 25 22 20 20 21 20 18 17 16 14 14 12 13 11 10 9 8 8 7 12 9 7 6 3 2 2 2 2 3 4 4 5 5 7 7 8 9 9 8
28 27 24 25 22 22 21 21 22 22 20 18 16 15 13 11 11 10 9 9 9 11 12 11 11 8 5 4 3 3 3 5 6 5 2 3 6 7 8 11 12 10 9
24 26 25 23 23 22 23 23 22 22 21 19 15 13 12 11 10 9 9 10 10 11 11 11 9 7 5 4 2 3 4 7 6 4 3 6 11 13 13 13 11 8 11
24 25 24 23 24 23 22 21 21 20 18 17 18 16 14 12 12 11 10 10 8 8 9 9 7 6 5 3 1 3 5 6 4 3 15 18 16 15 12 11 10 10 11
26 25 26 26 25 22 19 19 17 17 17 16 16 16 15 13 12 11 10 10 9 7 5 4 4 3 1 1 3 4 4 5 8 13 16 17 16 15 13 11 10 12 12
28 28 26 24 23 19 17 17 17 17 17 16 15 14 12 11 9 8 7 7 6 5 3 2 2 1 2 2 4 6 7 9 12 14 12 8 15 14 16 15 14 13 13
27 26 24 23 21 19 17 17 19 18 17 16 14 12 10 9 8 6 5 4 4 3 2 2 1 1 2 2 3 7 9 11 13 15 14 10 9 20 20 13 8 6 10
26 24 23 22 20 19 16 16 18 18 17 15 13 10 8 7 8 5 3 2 1 1 1 2 2 3 5 7 8 9 9 10 12 7 1 10 16 16 7 9 1 21 23
Wind_Direction
142 138 134 135 134 134 129 122 120 117 112 109 105 103 101 98 95 93 95 89 86 74 76 104 118 128 128 129 127 128 123 115 108 104 101 101 105 99 99 99 99 87 84
148 146 140 138 138 139 134 130 126 121 113 109 103 98 96 94 92 88 89 94 98 92 75 67 79 160 140 135 132 131 129 117 109 104 101 96 107 110 113 107 97 89 87
161 158 152 148 146 146 142 137 129 122 116 111 106 101 95 92 87 85 82 84 97 105 93 82 65 133 133 129 127 129 127 121 110 101 96 113 112 117 115 111 109 103 87
167 161 156 153 152 151 147 141 136 127 118 112 105 98 96 94 92 89 89 89 87 90 91 88 85 83 75 95 105 104 105 104 100 92 82 83 84 90 93 94 92 86 82
170 164 157 154 155 155 152 147 138 135 127 118 109 101 93 89 88 90 90 88 83 80 79 80 89 92 86 81 87 92 92 92 90 89 83 81 86 84 86 86 85 84 80
170 165 157 157 159 158 156 152 146 137 132 125 114 101 91 86 84 80 81 86 86 85 83 90 87 92 100 90 78 86 91 88 84 84 84 83 79 80 74 70 70 68 69
167 165 160 161 165 164 161 157 151 145 131 129 115 98 82 79 75 67 67 72 77 79 82 81 91 95 102 109 100 83 85 87 83 82 78 72 72 65 63 60 54 54 50
169 166 163 165 169 166 165 165 160 148 144 145 137 122 127 80 67 62 63 66 67 73 77 80 86 89 95 102 99 98 90 89 86 77 71 65 54 54 52 50 47 46 42
171 170 167 167 173 173 171 170 167 161 157 164 163 141 124 167 121 67 67 72 71 71 75 78 82 90 96 105 109 105 95 82 76 73 59 54 55 55 54 52 52 46 43
170 171 171 170 174 175 173 172 173 177 175 167 170 172 143 140 151 137 83 79 85 78 74 80 84 92 102 112 121 106 93 75 67 64 59 44 45 47 49 50 47 45 44
174 173 171 172 173 175 176 177 180 185 186 178 178 153 138 136 125 136 143 127 91 79 77 74 81 98 111 118 126 113 106 70 59 52 58 54 55 55 52 48 44 39 39
172 173 170 173 175 174 175 180 185 186 185 188 185 178 166 155 173 144 117 127 132 94 88 88 88 90 107 116 128 143 109 73 67 62 57 56 54 52 49 43 39 38 39
169 168 171 169 172 172 171 174 175 174 176 182 180 181 190 202 178 154 132 132 137 158 141 100 110 93 100 108 112 107 121 120 67 59 53 48 44 42 42 39 36 35 36
171 167 171 168 168 167 166 168 166 165 165 167 165 165 170 172 176 177 161 149 107 135 169 170 159 139 116 110 115 111 111 95 69 54 51 45 39 34 30 26 26 34 41
169 167 169 165 165 163 164 165 162 160 160 160 161 161 164 160 170 181 184 176 148 144 169 181 174 176 151 116 99 83 88 92 73 56 47 41 40 40 32 32 37 37 38
165 167 165 162 160 161 165 163 158 156 159 152 154 157 157 158 158 155 168 184 192 139 132 153 177 168 160 131 98 61 61 64 54 38 22 15 20 25 32 37 35 31 19
164 164 160 159 158 162 161 158 155 154 157 150 146 149 142 143 153 156 160 160 156 157 132 127 147 158 160 158 117 63 34 25 29 37 15 9 6 11 20 22 13 4 358
163 161 156 156 154 156 155 154 151 154 152 146 141 144 135 136 132 129 133 135 146 150 147 143 148 152 157 147 101 82 69 28 31 37 19 16 16 13 5 3 353 346 341
154 153 150 148 150 148 153 152 151 149 143 141 139 137 133 137 126 121 116 112 111 119 136 150 136 146 141 124 95 88 67 40 17 343 344 355 7 10 8 2 352 340 333
158 155 152 146 149 150 155 153 151 144 141 137 136 136 134 134 130 129 125 116 113 114 120 126 128 127 126 111 79 73 31 5 356 348 10 4 2 350 336 331 329 327 325
153 143 141 147 154 156 158 154 150 146 143 140 138 135 133 130 125 122 125 121 123 122 122 122 120 122 117 115 69 20 358 348 355 43 10 337 330 328 327 325 323 324 329
143 145 149 155 155 156 154 152 151 150 148 146 141 138 132 122 117 117 116 116 115 120 126 129 126 131 127 123 64 1 359 0 347 327 330 320 327 328 335 330 334 321 323
152 157 161 157 152 149 154 155 155 153 151 153 153 149 143 142 139 130 118 117 105 103 112 125 134 142 173 254 313 332 337 328 314 318 325 317 328 326 334 325 313 318 316
161 156 154 153 150 144 148 155 156 155 153 152 153 152 152 147 145 145 139 135 128 126 115 103 81 42 2 336 333 327 316 313 316 321 331 297 324 335 332 318 308 311 314
158 155 154 153 150 147 150 153 161 160 158 157 158 159 160 155 149 159 157 156 144 145 154 162 148 32 339 292 321 309 302 310 315 317 319 306 333 327 328 326 324 6 348
157 157 156 158 159 153 158 161 169 167 164 164 164 165 171 170 161 176 184 172 177 205 211 222 237 250 276 287 290 293 292 297 304 318 279 310 313 326 318 310 198 316 317
Height
854 859 862 866 869 872 875 878 881 883 885 887 888 889 890 892 892 893 893 893 893 893 894 894 894 894 895 895 897 898 900 901 902 904 905 905 905 905 906 906 906 906 905
855 859 863 867 870 874 877 880 882 885 887 889 892 893 894 895 897 897 897 896 896 895 896 896 895 894 896 897 898 900 902 903 904 905 906 908 908 907 908 907 908 908 908
855 858 862 867 872 876 878 881 884 887 889 892 894 896 898 899 900 900 900 901 900 898 897 897 895 894 896 898 900 902 903 905 906 907 908 909 910 910 910 909 909 909 909
856 858 861 866 871 875 878 881 885 888 891 894 896 899 901 903 903 904 905 906 903 904 902 901 900 900 902 902 902 901 904 907 907 909 911 912 911 912 911 911 911 910 911
857 859 861 865 870 875 879 882 885 888 891 896 899 903 906 907 908 908 908 909 908 908 908 908 908 907 908 911 911 909 911 913 912 912 915 914 914 914 914 914 914 914 913
857 861 862 866 870 873 878 882 884 890 893 897 901 906 910 912 912 912 912 912 911 912 913 912 913 913 913 913 916 916 916 917 917 918 919 919 919 918 918 918 918 917 916
857 860 863 867 871 874 877 880 883 889 896 899 900 910 914 915 915 915 916 915 915 915 916 916 916 917 916 916 917 920 919 920 921 923 923 924 922 923 922 921 920 918 920
858 860 863 867 871 873 877 880 882 887 894 897 901 907 916 920 919 919 918 918 917 918 918 918 919 919 920 920 921 921 923 923 924 925 926 927 926 925 925 923 922 922 920
857 859 863 866 871 874 876 880 883 885 889 896 899 901 912 916 920 922 921 921 920 920 920 920 921 922 923 924 924 924 925 926 926 926 928 929 929 928 927 926 925 923 922
855 859 863 867 872 876 878 881 884 887 889 892 897 900 900 903 914 924 923 923 922 922 922 922 923 924 925 926 927 927 927 928 928 929 928 930 930 930 929 928 927 926 925
857 859 861 866 870 875 880 882 884 887 889 893 895 898 900 904 905 910 921 924 924 924 924 925 926 926 926 927 928 929 929 930 931 930 931 932 931 931 930 929 928 926 925
857 860 860 866 871 874 878 882 885 887 889 893 896 898 899 902 904 907 916 923 925 927 927 927 927 928 927 927 929 930 931 931 933 933 933 932 932 931 931 930 929 928 927
853 856 860 863 870 874 877 881 884 887 889 893 895 898 901 903 903 906 909 918 922 927 928 928 928 929 929 929 929 930 931 931 932 933 934 933 932 931 931 930 929 929 928
848 852 860 864 870 873 876 881 884 887 890 894 896 898 901 903 905 906 907 911 922 926 927 928 929 930 930 930 930 931 931 932 932 932 933 932 932 932 931 931 930 930 929
847 852 859 861 868 871 876 881 883 887 890 894 896 898 901 903 905 907 908 910 912 921 925 927 929 930 931 931 932 932 932 932 932 932 932 932 932 932 932 931 931 930 930
848 854 859 861 866 871 877 879 883 887 890 894 897 899 902 904 906 908 910 911 913 913 923 925 928 929 931 931 932 933 933 933 933 933 933 932 931 931 931 931 931 931 929
852 855 857 863 867 873 877 879 883 887 891 895 898 901 903 906 907 909 910 912 913 914 918 924 927 929 931 932 932 932 934 934 933 933 934 933 933 932 931 931 930 930 929
852 858 858 864 869 875 877 879 884 890 892 895 899 903 905 907 910 911 912 913 914 915 917 921 926 928 931 932 932 933 933 934 934 934 934 933 933 932 932 931 930 929 928
852 858 861 866 871 874 879 882 886 891 894 898 901 904 907 910 911 913 914 915 916 917 919 921 925 929 931 932 933 933 933 934 934 934 933 932 933 932 932 931 930 929 928
857 858 864 866 873 876 880 885 889 891 896 900 903 906 909 911 913 914 916 917 918 920 921 923 926 929 931 933 933 933 934 934 933 933 932 932 931 931 930 929 927 926 926
863 861 865 870 875 879 883 887 890 893 897 901 906 908 911 913 915 916 917 918 920 921 923 925 927 930 931 933 934 934 934 934 933 932 932 931 930 929 928 926 925 924 925
861 864 869 875 877 883 886 889 892 895 899 903 906 910 913 915 917 918 919 921 922 923 924 926 928 930 931 932 933 934 934 934 933 933 931 929 928 927 925 924 923 922 921
862 867 872 876 880 884 889 891 894 897 901 905 909 911 914 916 919 920 922 923 924 925 926 927 928 930 931 932 933 933 933 933 932 931 930 926 925 924 923 922 921 920 919
866 869 874 878 882 886 891 893 896 900 904 908 911 913 915 917 919 921 922 923 924 925 926 927 928 930 930 931 931 931 931 931 929 929 928 925 923 920 920 919 918 917 916
867 871 876 880 884 889 893 895 898 902 905 908 911 913 915 917 919 920 922 923 924 925 927 927 928 929 929 930 930 929 929 928 927 926 925 923 922 919 917 915 913 914 914
870 874 878 883 887 890 895 897 900 903 906 908 910 912 915 916 919 920 921 922 924 925 926 927 927 927 928 927 927 927 926 925 925 924 923 923 921 919 915 912 911 911 911